Погода в Чаре

Погода в Чаре : погода сейчас, прогноз погоды и архив. Всё, что Вы хотите узнать о погоде в Чаре!

Хотите узнать прогноз погоды в Чаре? Тогда Вам сюда: Погода в Чаре

Поиск расширенной информации на нашем сайте:

Другие новости

Новости СМИ2

Главная страница сайта

Новости сайта

03.07.2017

Напоминаем, что на нашем специализированном сайте Метеоцентр.Азия вы можете получить высокодетализированные автоматические прогнозы погоды по пунктам России, СНГ и мира в авиационном формате (включающие направление и скорость ветра, видимость, явления погоды, количество и форму облачности, нижнюю и верхнюю границу облачности).


Погода в Чаре - сегодня

Время (UTC), дата Ветер
(°,м/с) 
Видим.   Явления Облачность Т
(°С)
Тd
(°С)
f(%) Тe
(°С)
Pmin
(гПа)
dP
(гПа)
Po
(мм)
O2
(г/м3)
Тmin Tmax R s Состояние
почвы
15 14.08.18 290 (З) 20000 м  дым  3/0 верхняя 
[Ci fib]
+12.6 +10.7 88 +18  1014.7  1.4  700  267           
18 14.08.18 320 (СЗ) 20000 м  дым  3/0 верхняя 
[Ci fib]
+9.6 +8.4 92 +11  1016.6  0.8  700  271           
21 14.08.18 270 (З) 20000 м  дым  6/0 средняя, верхняя 
[Ac lent|Ci fib]
+7.9 +7 94 +9  1017.8  0.7  701  273           
00 15.08.18 тихо ()   20000 м  дым  6/0 верхняя 
[Ci fib]
+15 +11.7 81 +20  1015.6  701  265  +7.9        влажная 
03 15.08.18 030 (СВ) 20000 м  дым  6/0 верхняя 
[Ci fib]
+24.6 +11.9 45 +30  1010.9  -1.8  700  256           
12 15.08.18 190 (Ю) 4{11}  20000 м    10/6 1500 м кучево-дожд., верхняя 
[Cb cap|Ci sp]
+24.1 +9.3 39 +26  1007.9  0.1  697  256    +30.1       
15 15.08.18 290 (З) 20000 м    8/4 1500 м кучево-дожд., верхняя 
[Cb cap|Ci fib]
+19.3 +11.3 60 +25  1009.8  0.6  698  260           
18 15.08.18 060 (СВ) 20000 м    8/4 1500 м кучево-дожд., верхняя 
[Cb cap|Ci fib]
+13.7 +10.8 83 +19  1010.6  -0.8  697  265           
21 15.08.18 310 (СЗ) 20000 м    10/4 1500 м средняя, верхняя 
[Sc|Ac lent|Ci sp]
+10.6 +9.4 92 +14  1010.1  -1.2  696  268           
00 16.08.18 240 (ЮЗ) 20000 м    10/6 1500 м верхняя 
[Cu Sc|Ci ing]
+17.2 +13.4 78 +27  1007.1  -0.9  695  260  +10.6        влажная 
03 16.08.18 250 (З) 20000 м    10/9 1000 м кучево-дожд., верхняя 
[Cb cap|Ci ing]
+21.4 +14.3 64 +31  1004.4  -1.4  695  256           
06 16.08.18 210 (ЮЗ) 20000 м    10/8 1000 м кучево-дожд., средняя, верхняя 
[Cb cap|As trans|Cs]
+23 +15 61 +34  1002.2  -1.5  693  254           
09 16.08.18 210 (ЮЗ) 20000 м  слаб. ливневой дождь  10/9 1000 м кучево-дожд., средняя 
[Cb cap|As trans]
+19.3 +14.3 73 +30  1003.2  693  258           
12 16.08.18 320 (СЗ) 20000 м  слаб. ливневой дождь  10/8 1000 м кучево-дожд., средняя 
[Cb cap|As op]
+15.7 +13.9 89 +26  1004.4  0.2  693  261    +23.8     
15 16.08.18 350 (С) 4000 м  ливневой дождь  10/10 600 м кучево-дожд. 
[Cb cap]
+14.2 +13 92 +22  1003.7  -1  693  263           
18 16.08.18 100 (В) 4000 м  ливневой дождь  10/10 600 м кучево-дожд. 
[Cb cap]
+12.5 +11.5 94 +19  1004.2  -0.1  693  265           
21 16.08.18 340 (С) 4000 м  слаб. ливневой дождь  10/10 600 м кучево-дожд. 
[Cb cap]
+12.1 +11.2 94 +18  1004  -0.3  692  265           
00 17.08.18 040 (СВ) 7000 м  слаб. ливневой дождь  10/8 600 м кучево-дожд., средняя 
[Cb cap|As op]
+12.3 +11.3 94 +19  1004.1  0.2  692  265  +11.9    26    затоплена
водой 
03 17.08.18 330 (СЗ) 20000 м  в посл. час ливневой дождь  9/9 600 м кучево-дожд. 
[Cb cap]
+13.7 +12.1 90 +20  1002.7  -1  692  263           
06 17.08.18 тихо ()   20000 м  {ливн. осадки}  9/8 1000 м кучево-дожд., верхняя 
[Cb cap|Ci fib]
+15.3 +11.1 76 +20  1000.9  -1.2  691  261           
09 17.08.18 090 (В) 20000 м    6/4 1500 м кучево-дожд., верхняя 
[Cb cap|Ci fib]
+17.4 +10 62 +22  1000.1  -0.2  691  260           
12 17.08.18 040 (СВ) 20000 м  {ливн. осадки}  8/5 1500 м кучево-дожд., верхняя 
[Cb cap|Ci fib]
+13.2 +11.3 88 +19  1001.7  0.4  691  263    +17.5     
15 17.08.18 тихо ()   20000 м    8/5 1500 м кучево-дожд., средняя, верхняя 
[Cb cap|Ac trans|Ci fib]
+10.1 +9.1 93 +12  1002.6  -0.2  691  267           
18 17.08.18 тихо ()   20000 м    6/4 1500 м кучево-дожд., верхняя 
[Cb cap|Ci fib]
+8.5 +7.6 94 +9  1002.3  -0.7  690  268           
21 17.08.18 тихо ()   20000 м    9/4 1500 м кучево-дожд., средняя, верхняя 
[Cb cap|Ac trans|Ci fib]
+8.3 +7.5 95 +8  1001.9  -0.4  690  268           
Время (UTC), дата Ветер
(°,м/с) 
Видим.   Явления Облачность Т
(°С)
Тd
(°С)
f(%) Тe
(°С)
Pmin
(гПа)
dP
(гПа)
Po
(мм)
O2
(г/м3)
Тmin Tmax R s Состояние
почвы

Для получения пояснительной информации подведите курсор к названию столбца.

ПОГОДА в Чаре - архив

Всё, что Вы хотите узнать о погоде в Чаре - удобно и подробно!

Выберите нужную дату (начиная с 1 января 2015* года) и нажмите кнопку "Найти".
Будут отображены архивные сводки погоды по пункту Чара, начиная с указанной даты.


Отображать данные в формате CSV (для использования в таблицах Excel)


Внимание! Наш архив погоды предназначен исключительно для личного некоммерческого использования в познавательных целях. Если Вам необходимы официальные справки о состоянии погоды (для производственных, юридических, коммерческих и т.п. целей), обращайтесь в органы Росгидромета.

*Примечание: данная дата относится к архиву по метеостанциям СССР (Россия, СНГ, Балтия).
Архив по метеостанциям Зарубежной Европы и Азии (кроме Китая) хранится 10 дней, по другим регионам земного шара (Китай, Африка, Америка, Австралия, Океания) - 1 день.

Чара - район местоположения метеостанции


Название, широта, долгота, высота метеостанции:
Чара 56.9°ш. 118.3°д. 711 м над ур. моря [Российская Федерация]

Дополнительная информация

В oтличие oт бoльшинства пoгoдных сайтoв мы публикуем пoдрoбную метеoинфoрмацию в детальнoм прoфессиoнальнoм фoрмате.

Характеристики температуры и влажнoсти вoздуха измеряются на высoте 2 м в тени вдали oт зданий и деревьев.
Скoрoсть ветра измеряется на высoте 10 м (на урoвне рoста челoвека скoрoсть ветра ниже в 1.5-2 раза). Если метеoстанция нахoдится в гoрoде или в лесу, тo скoрoсть ветра занижена на 2-4 м/с пo сравнению с oткрытым местoм. Скoрoсть ветра над акватoриями крупных рек и oзёр, а также на вершинах хoлмoв на 2-5 м/с выше, чем в oбычных услoвиях.
Атмoсфернoе давление в разных тoчках местнoсти мoжет значительнo oтличаться oт давления на метеoстанции, в зависимoсти oт услoвий рельефа (при пoдъёме на 10 м давление пoнижается примернo на 1 мм рт.ст.).